Location: Oberwangen
(47.4286°N, 8.9679°E)
Time: 15:25:03
(UTC+00:00)

Cosmos 1825 Rocket - Pass Details

Date: 20 June 2021
Orbit: 603 x 631 km, 82.5° (Epoch: 03 August)

Event Time Altitude Azimuth Distance (km) Brightness Sun altitude
Exits shadow 23:25:12 37° 144° (SE) 977 4.1 -19.1°
Maximum altitude 23:26:31 51° 94° (E) 794 4.0 -19.1°
Drops below altitude 10° 23:30:51 10° 19° (NNE) 2,014 7.3 -19.1°
Sets 23:33:08 0° 14° (NNE) 2,923 8.5 -19.1°
